Погода в Попаяне

Колумбия     2°26′39″N   76°36′49″W
темп.,
°C
ветер,
м/с
пор.,
м/с
влажн.,
%
обл.,
%
осадки,
мм/ч
давл.,
гПа
погр.,
м
17 августа, ср
ср1701:00+10вюв329243 0.3 101840
04:00+10вюв22905 0.0 101738
07:00+12вюв22835 0.0 101849
10:00+19зсз225813 0.1 10161051
13:00+20зсз116544 1.9 10131158
16:00+17з118429 4.6 1012348
19:00+12вюв229410 7.1 101632
22:00+11вюв22935 0.3 101837
18 августа, чт
чт1801:00+10вюв229312 0.3 101729
04:00+9вюв22924 0.0 101730
07:00+11вюв22865 0.0 101743
10:00+19зсз335810 0.0 10141127
13:00+21зсз226053 1.2 10111333
16:00+17зсз128392 2.8 1011355
19:00+13вюв229590 4.9 101641
22:00+11вюв229492 0.1 101843
19 августа, пт
пт1901:00+10вюв2293100 0.1 101744
04:00+10вюв3392100 0.0 101660
07:00+11вюв348699 0.0 1017122
10:00+21з154296 0.0 10141466
13:00+23з053997 0.0 10102143
16:00+19ююв1257100 0.1 1011909
19:00+12вюв3388100 0.9 101650
22:00+11вюв338351 0.0 101954
20 августа, сб
сб2001:00+11вюв338293 0.0 101862
04:00+10вюв3383100 0.0 101867
07:00+12вюв237930 0.0 1018110
10:00+18св035585 0.0 10161091
13:00+16ю2476100 0.7 1015409
16:00+16ююв1373100 1.5 1013612
19:00+12вюв2390100 1.9 1017114
22:00+11вюв2387100 0.1 101987
21 августа, вс
вс2101:00+12юв2383100 0.3 101786
04:00+12юв227899 0.0 101679
07:00+12вюв2379100 0.0 1017125
10:00+18ююз1357100 0.0 10161225
13:00+18зсз1262100 0.6 1014836
16:00+15зюз1287100 2.3 1014172
19:00+12вюв2292100 3.5 101736
22:00+11вюв2292100 0.1 101843